EST,Max TemperatureF,Mean TemperatureF,Min TemperatureF,Max Dew PointF,MeanDew PointF,Min DewpointF,Max Humidity, Mean Humidity, Min Humidity, Max Sea Level PressureIn, Mean Sea Level PressureIn, Min Sea Level PressureIn, Max VisibilityMiles, Mean VisibilityMiles, Min VisibilityMiles, Max Wind SpeedMPH, Mean Wind SpeedMPH, Max Gust SpeedMPH,PrecipitationIn, CloudCover, Events, WindDirDegrees
2013-3-1,84,76,69,72,71,70,100,76,63,29.95,29.90,29.83,6,6,6,9,2,,0.00,2,,3
2013-3-2,82,76,69,73,70,66,100,87,66,30.06,29.94,29.86,6,6,6,18,7,31,0.39,4,Rain,358
2013-3-3,77,72,68,66,61,55,78,61,49,30.12,30.06,30.01,6,6,6,17,13,31,0.04,3,Rain,335
2013-3-4,76,72,69,61,58,55,69,60,49,30.18,30.11,30.06,6,6,6,14,11,,0.00,3,,41
2013-3-5,80,76,71,70,67,64,88,73,58,30.09,30.05,30.01,6,6,6,16,13,,0.00,3,,65
2013-3-6,81,77,73,72,69,64,83,73,63,30.09,30.07,30.04,6,6,6,14,8,,0.00,2,,13
2013-3-7,79,75,71,68,66,63,78,70,61,30.12,30.09,30.06,6,6,6,15,12,,0.00,2,,36
2013-3-8,79,75,71,67,64,63,78,67,52,30.12,30.07,30.04,6,6,6,14,10,,0.00,2,,53
2013-3-9,81,76,70,68,66,64,78,69,55,30.09,30.04,30.01,6,6,6,16,13,,0.00,1,,72
2013-3-10,83,77,71,70,69,64,83,75,58,30.01,29.97,29.92,6,6,6,16,11,,0.00,1,,95
2013-3-11,84,76,69,73,71,68,83,75,60,29.98,29.94,29.89,6,6,6,13,9,,0.00,1,,109
2013-3-12,85,79,73,77,74,72,94,82,70,30.04,29.99,29.95,6,6,6,12,5,,0.00,1,,139
2013-3-13,83,77,71,73,72,68,100,82,68,30.06,30.02,29.98,6,6,6,10,5,,0.00,1,,57
2013-3-14,79,76,73,75,71,66,100,84,66,30.06,30.03,29.98,6,6,6,18,14,,0.08,6,Rain,39
2013-3-15,79,76,73,68,65,63,78,69,58,30.12,30.07,30.01,6,6,6,21,18,,0.00,2,,58
2013-3-16,81,77,73,72,69,66,89,76,60,30.06,30.03,29.98,6,6,6,20,13,,0.00,2,,79
2013-3-17,85,78,71,77,74,70,94,83,74,30.04,30.00,29.95,6,6,6,12,7,,0.00,1,,110
2013-3-18,86,81,76,77,76,74,94,86,75,30.04,29.99,29.95,6,6,6,9,6,,0.00,2,Rain,138
2013-3-19,84,80,76,77,76,74,100,86,75,30.01,29.97,29.92,6,6,6,9,6,,0.00,3,Rain,140
2013-3-20,85,80,75,77,75,73,94,83,74,29.98,29.92,29.86,6,6,6,10,4,,0.00,1,,132
2013-3-21,85,79,73,75,75,72,95,82,72,29.95,29.90,29.86,6,6,6,10,5,,0.00,1,,157
2013-3-22,86,80,74,77,76,73,100,83,74,29.98,29.94,29.89,6,6,6,9,7,,0.00,1,,131
2013-3-23,87,82,78,79,77,75,94,85,76,29.98,29.91,29.86,6,6,6,12,9,21,0.00,3,,140
2013-3-24,86,82,78,79,77,75,89,84,76,29.89,29.83,29.77,6,6,6,15,10,24,0.00,1,,169
2013-3-25,87,83,79,79,78,77,94,86,79,29.95,29.89,29.80,6,6,6,16,12,,0.00,1,,162
2013-3-26,85,80,76,79,76,72,94,86,79,30.06,30.00,29.95,6,6,6,18,6,29,0.00,2,,41
2013-3-27,75,73,71,70,70,68,94,87,83,30.15,30.10,30.06,6,6,6,16,14,,0.00,8,Rain,29
2013-3-28,80,75,70,72,70,66,94,79,67,30.12,30.08,30.06,6,6,6,18,14,,0.00,4,Rain,52
2013-3-29,81,77,73,70,69,68,83,77,65,30.15,30.10,30.06,6,6,5,20,17,,0.00,3,,63
2013-3-30,80,77,74,73,72,70,89,83,78,30.09,30.06,30.04,6,6,6,20,17,,0.02,5,,76
2013-3-31,86,80,75,77,76,72,100,86,74,30.04,30.01,29.95,6,6,6,14,10,,0.00,2,,96